GW6832 Weather Reports


Display with metric or nautical units.
time (UTC)temp
F
wind
direction
speed
MPH
gust
MPH
rain 1hr
in
rain 24hr
in
rain mn
in
humidity
%
barometer
mb
20260510160009 86 22 7.0 13.0 0.00 0.00 0.00 70 1017.4
20260510154514 86 333 4.0 12.0 0.00 0.00 0.00 69 1017.5
20260510153020 86 300 3.0 11.0 0.00 0.00 0.00 69 1017.6
20260510151531 84 326 3.0 10.0 0.00 0.00 0.00 73 1017.4
20260510150008 84 333 5.0 10.0 0.00 0.00 0.00 72 1017.1
20260510144516 85 296 2.0 5.0 0.00 0.00 0.00 72 1017.2
20260510143016 85 284 3.0 7.0 0.00 0.00 0.00 71 1017.1
20260510141524 84 304 3.0 9.0 0.00 0.00 0.00 73 1017.0
20260510140023 83 308 3.0 7.0 0.00 0.00 0.00 74 1016.7
20260510134511 83 264 4.0 8.0 0.00 0.00 0.00 75 1016.8
20260510133015 82 274 3.0 7.0 0.00 0.00 0.00 75 1016.7
20260510131520 81 281 3.0 7.0 0.00 0.00 0.00 76 1016.6
20260510130024 80 278 2.0 6.0 0.00 0.00 0.00 78 1016.4
20260510124529 79 297 2.0 4.0 0.00 0.00 0.00 80 1016.5
20260510123013 76 300 2.0 3.0 0.00 0.00 0.00 85 1016.4
20260510121517 74 275 0.0 2.0 0.00 0.00 0.00 88 1016.2
20260510120026 73 281 2.0 4.0 0.00 0.00 0.00 89 1016.0
20260510114528 73 265 3.0 4.0 0.00 0.00 0.00 91 1015.8
20260510113012 72 274 0.0 2.0 0.00 0.00 0.00 93 1015.6
20260510111520 71 288 0.0 0.0 0.00 0.00 0.00 93 1015.5
20260510110022 70 288 0.0 0.0 0.00 0.00 0.00 92 1015.3
20260510104525 71 288 0.0 0.0 0.00 0.00 0.00 91 1015.1
20260510103028 71 288 0.0 0.0 0.00 0.00 0.00 91 1014.8
20260510101518 71 288 0.0 0.0 0.00 0.00 0.00 91 1014.7
20260510100004 72 288 0.0 0.0 0.00 0.00 0.00 90 1014.4
20260510094514 72 288 0.0 0.0 0.00 0.00 0.00 91 1014.3
20260510093010 72 284 0.0 0.0 0.00 0.00 0.00 90 1014.2
20260510091515 72 272 0.0 1.0 0.00 0.00 0.00 90 1013.9
20260510090020 72 290 0.0 1.0 0.00 0.00 0.00 89 1013.8
20260510084512 73 290 0.0 2.0 0.00 0.00 0.00 89 1013.7
20260510083008 73 272 1.0 3.0 0.00 0.00 0.00 89 1013.5
20260510081510 73 275 0.0 2.0 0.00 0.00 0.00 88 1013.5
20260510080024 73 271 1.0 3.0 0.00 0.00 0.00 87 1013.3
20260510074521 73 267 1.0 4.0 0.00 0.00 0.00 87 1013.4
20260510073012 73 278 1.0 3.0 0.00 0.00 0.00 86 1013.5
20260510071510 73 271 2.0 10.0 0.00 0.00 0.00 86 1013.3
20260510070016 73 271 3.0 6.0 0.00 0.00 0.00 86 1013.3
20260510064520 74 271 3.0 10.0 0.00 0.00 0.00 84 1013.5
20260510063025 74 290 4.0 10.0 0.00 0.00 0.00 84 1013.8
20260510061510 74 250 3.0 9.0 0.00 0.00 0.00 83 1013.9
20260510060030 74 263 4.0 8.0 0.00 0.00 0.00 82 1014.1
20260510054525 74 283 4.0 8.0 0.00 0.00 0.00 82 1014.4
20260510053022 74 266 3.0 7.0 0.00 0.00 0.00 82 1014.7
20260510051508 74 261 2.0 7.0 0.00 0.00 0.00 82 1014.9
20260510050011 74 254 2.0 7.0 0.00 0.00 0.00 82 1015.1
20260510044518 73 231 2.0 6.0 0.00 0.00 0.00 83 1015.2
20260510043026 72 250 2.0 3.0 0.00 0.00 0.00 83 1015.3
20260510041524 73 269 1.0 2.0 0.00 0.00 0.00 82 1015.5
20260510040009 73 269 0.0 1.0 0.00 0.00 0.00 82 1015.5
20260510034521 73 270 0.0 1.0 0.00 0.00 0.00 81 1015.7
20260510033019 73 269 0.0 2.0 0.00 0.00 0.00 82 1015.6
20260510031524 73 269 0.0 2.0 0.00 0.00 0.00 82 1015.6
20260510030027 72 269 0.0 2.0 0.00 0.00 0.00 84 1015.4
20260510024513 72 274 0.0 0.0 0.00 0.00 0.00 84 1015.4
20260510023020 72 275 0.0 1.0 0.00 0.00 0.00 83 1015.3
20260510021521 72 270 1.0 2.0 0.00 0.00 0.00 83 1014.8
20260510020025 72 267 0.0 4.0 0.00 0.00 0.00 84 1014.7
20260510014526 71 274 0.0 1.0 0.00 0.00 0.00 85 1014.5
20260510013016 72 274 0.0 1.0 0.00 0.00 0.00 83 1014.6
20260510011520 73 285 0.0 1.0 0.00 0.00 0.00 82 1014.5
20260510010023 73 288 1.0 1.0 0.00 0.00 0.00 81 1014.5
20260510004528 73 267 1.0 3.0 0.00 0.00 0.00 81 1014.1
20260510003024 73 245 2.0 5.0 0.00 0.00 0.00 81 1013.9
20260510001524 73 271 1.0 4.0 0.00 0.00 0.00 80 1013.9
20260510000023 74 242 2.0 6.0 0.00 0.00 0.00 79 1014.0
20260509234506 74 256 3.0 6.0 0.00 0.00 0.00 78 1013.9
20260509233011 75 105 2.0 9.0 0.00 0.00 0.00 77 1013.7
20260509231517 75 259 1.0 5.0 0.00 0.00 0.00 77 1013.8
20260509230021 76 290 2.0 7.0 0.00 0.00 0.00 75 1013.7
20260509224523 77 262 6.0 11.0 0.00 0.00 0.00 74 1013.8
20260509223007 80 276 3.0 11.0 0.00 0.00 0.00 72 1013.8
20260509221511 82 265 2.0 6.0 0.00 0.00 0.00 69 1013.7
20260509220025 82 295 2.0 8.0 0.00 0.00 0.00 67 1013.6
20260509214522 83 288 2.0 5.0 0.00 0.00 0.00 63 1013.4
20260509213008 85 323 2.0 6.0 0.00 0.00 0.00 59 1013.3
20260509211511 85 289 2.0 9.0 0.00 0.00 0.00 58 1012.9
20260509210015 88 273 1.0 6.0 0.00 0.00 0.00 55 1012.6
20260509204523 87 337 3.0 8.0 0.00 0.00 0.00 58 1012.7
20260509203036 88 316 2.0 7.0 0.00 0.00 0.00 59 1012.8
20260509201508 87 168 2.0 6.0 0.00 0.00 0.00 60 1012.9
20260509200015 86 299 3.0 8.0 0.00 0.00 0.00 62 1012.9
20260509194519 84 283 1.0 6.0 0.00 0.00 0.00 65 1013.0
20260509193023 83 304 2.0 8.0 0.00 0.00 0.00 66 1013.0
20260509191524 84 298 2.0 6.0 0.00 0.00 0.00 67 1013.1
20260509190018 84 340 3.0 10.0 0.00 0.00 0.00 67 1013.4
20260509184517 84 312 3.0 7.0 0.00 0.00 0.00 68 1013.5
20260509183024 84 317 4.0 8.0 0.00 0.00 0.00 65 1013.5
20260509181527 85 343 3.0 11.0 0.00 0.00 0.00 61 1013.7
20260509180028 86 285 1.0 8.0 0.00 0.00 0.00 61 1014.0
20260509174514 87 305 4.0 10.0 0.00 0.00 0.00 59 1014.2
20260509173022 87 350 7.0 13.0 0.00 0.00 0.00 57 1014.1
20260509171525 87 354 4.0 10.0 0.00 0.00 0.00 60 1014.1
20260509170036 88 295 6.0 12.0 0.00 0.00 0.00 58 1014.0
20260509164513 88 347 4.0 10.0 0.00 0.00 0.00 57 1014.0
20260509163018 88 310 4.0 10.0 0.00 0.00 0.00 59 1013.9
20260509161527 88 296 3.0 8.0 0.00 0.00 0.00 58 1013.8